Regional Weather Roundup
Issued by NWS Goodland, KS

Home | Current Version | Previous Version | Text Only | Print | Product List | Glossary Off
Versions: 1 2 3 4 5 6 7 8 9 10 11 12 13 14 15 16 17 18 19 20 21 22 23 24 25 26 27 28 29 30 31 32 33 34 35 36 37 38 39 40 41 42 43 44 45 46 47 48 49 50

000
ASUS43 KGLD 211308
RWRGLD

GOODLAND FORECAST AREA HOURLY WEATHER ROUNDUP
NATIONAL WEATHER SERVICE GOODLAND KS
700 AM MDT FRI JUL 21 2017

...OFFICIAL OBSERVATIONS...

CITY           SKY/WX    TMP DP  RH WIND       PRES   REMARKS
GOODLAND KS    SUNNY     73  60  63 W6        29.97R
HILL CITY KS   SUNNY     80  60  50 W6        29.92R
IMPERIAL NEB   SUNNY     73  66  78 W7        29.93R
MCCOOK NEB     SUNNY     74  61  63 SW7       29.87S
AKRON CO       SUNNY     71  54  54 NW7       30.06R
BURLINGTON CO  SUNNY     69  59  70 W5        30.02R
LIMON CO       SUNNY     67  56  67 W9        30.14R
$$

...UNOFFICIAL OBSERVATIONS...

CITY           SKY/WX    TMP DP  RH WIND       PRES   REMARKS
LENORA KS        N/A     74  32  21 MISG        N/A
NORTON KS      SUNNY     75  55  50 S10       29.88
SHARON SPRINGS   N/A     69  60  72 CALM        N/A
TRENTON NEB      N/A     73  32  22 CALM        N/A
KIT CARSON CO    N/A     71  57  61 MISG        N/A
YUMA CO        FAIR      70  52  52 W7        30.01R
$$




USA.gov is the U.S. government's official web portal to all federal, state and local government web resources and services.